FXJ79 EDDL-EDLW

Flight info

Callsign FXJ79
Flight time 0h 25m
Altitude 9000
Route MEVEL1Z MEVEL Z841 DOMEG DOMEG2A
Aircraft DA42/L-SBDGRY/S

Departure

Time 2026-05-07 17:36
Airport Düsseldorf Airport (EDDL)

Arrival

Time 2026-05-07 18:01
Airport Dortmund Airport (EDLW)
Time Latitude Longitude Altitude Speed Heading
2026-05-07 17:22 51.27522 6.75297 118 ft 0 kts 232°
2026-05-07 17:31 51.27528 6.75270 116 ft 9 kts 333°
2026-05-07 17:31 51.27600 6.75191 116 ft 16 kts 354°
2026-05-07 17:32 51.27687 6.75192 118 ft 19 kts
2026-05-07 17:32 51.27782 6.75294 115 ft 16 kts 54°
2026-05-07 17:32 51.27855 6.75340 115 ft 11 kts 328°
2026-05-07 17:32 51.27868 6.75329 115 ft 0 kts 330°
2026-05-07 17:34 51.27926 6.75282 112 ft 23 kts 335°
2026-05-07 17:34 51.28035 6.75360 111 ft 1 kts 52°
2026-05-07 17:35 51.28059 6.75409 113 ft 24 kts 52°
2026-05-07 17:35 51.28291 6.75900 116 ft 81 kts 52°
2026-05-07 17:35 51.28700 6.76756 166 ft 110 kts 52°
2026-05-07 17:36 51.29224 6.77849 202 ft 133 kts 53°
2026-05-07 17:36 51.29791 6.79030 396 ft 135 kts 53°
2026-05-07 17:36 51.30361 6.80249 598 ft 138 kts 53°
2026-05-07 17:36 51.30959 6.81456 828 ft 139 kts 53°
2026-05-07 17:37 51.31524 6.82693 1145 ft 130 kts 53°
2026-05-07 17:37 51.32014 6.83744 1753 ft 105 kts 52°
2026-05-07 17:37 51.32440 6.84647 2171 ft 102 kts 52°
2026-05-07 17:37 51.32874 6.85565 2517 ft 104 kts 52°
2026-05-07 17:38 51.33296 6.86501 2880 ft 105 kts 57°
2026-05-07 17:38 51.33724 6.87458 3260 ft 106 kts 53°
2026-05-07 17:38 51.34154 6.88410 3645 ft 106 kts 52°
2026-05-07 17:38 51.34580 6.89360 4029 ft 107 kts 52°
2026-05-07 17:39 51.35067 6.90248 4405 ft 107 kts 32°
2026-05-07 17:39 51.35698 6.90869 4797 ft 108 kts 46°
2026-05-07 17:39 51.36057 6.91935 5197 ft 110 kts 63°
2026-05-07 17:39 51.36373 6.93050 5585 ft 110 kts 63°
2026-05-07 17:40 51.36689 6.94172 5962 ft 111 kts 63°
2026-05-07 17:40 51.37003 6.95310 6345 ft 112 kts 64°
2026-05-07 17:40 51.37316 6.96457 6697 ft 113 kts 63°
2026-05-07 17:40 51.37632 6.97606 7077 ft 113 kts 63°
2026-05-07 17:41 51.37959 6.98753 7465 ft 114 kts 62°
2026-05-07 17:41 51.38286 6.99918 7864 ft 115 kts 62°
2026-05-07 17:41 51.38618 7.01099 8282 ft 117 kts 63°
2026-05-07 17:41 51.38955 7.02295 8698 ft 118 kts 63°
2026-05-07 17:42 51.39306 7.03508 9046 ft 126 kts 63°
2026-05-07 17:42 51.39727 7.04929 9060 ft 154 kts 63°
2026-05-07 17:42 51.40218 7.06579 9057 ft 173 kts 63°
2026-05-07 17:42 51.40751 7.08373 9060 ft 183 kts 63°
2026-05-07 17:43 51.41309 7.10245 9063 ft 189 kts 63°
2026-05-07 17:43 51.41729 7.12246 9067 ft 192 kts 80°
2026-05-07 17:43 51.41902 7.14374 9068 ft 193 kts 83°
2026-05-07 17:43 51.42050 7.16521 9069 ft 195 kts 83°
2026-05-07 17:44 51.42196 7.18680 9066 ft 195 kts 83°
2026-05-07 17:44 51.42344 7.20842 9064 ft 194 kts 83°
2026-05-07 17:44 51.42489 7.22992 9064 ft 194 kts 83°
2026-05-07 17:44 51.42632 7.25142 9064 ft 194 kts 83°
2026-05-07 17:45 51.42774 7.27291 9067 ft 194 kts 83°
2026-05-07 17:45 51.42914 7.29410 9067 ft 194 kts 83°
2026-05-07 17:45 51.43058 7.31554 9075 ft 194 kts 83°
2026-05-07 17:45 51.43199 7.33703 9075 ft 194 kts 83°
2026-05-07 17:46 51.43336 7.35857 9075 ft 194 kts 83°
2026-05-07 17:46 51.43476 7.38009 9075 ft 194 kts 83°
2026-05-07 17:46 51.43615 7.40139 9065 ft 185 kts 83°
2026-05-07 17:46 51.43737 7.42077 9042 ft 167 kts 83°
2026-05-07 17:47 51.43852 7.43901 8943 ft 161 kts 83°
2026-05-07 17:47 51.43958 7.45696 8454 ft 162 kts 83°
2026-05-07 17:47 51.44060 7.47494 7987 ft 160 kts 83°
2026-05-07 17:47 51.44136 7.49261 7497 ft 159 kts 93°
2026-05-07 17:48 51.43678 7.50845 7091 ft 152 kts 130°
2026-05-07 17:48 51.43035 7.51974 6955 ft 129 kts 133°
2026-05-07 17:48 51.42409 7.53045 6499 ft 133 kts 133°
2026-05-07 17:48 51.41776 7.54111 6017 ft 132 kts 133°
2026-05-07 17:49 51.41142 7.55153 5546 ft 129 kts 133°
2026-05-07 17:49 51.40512 7.56165 5070 ft 128 kts 133°
2026-05-07 17:49 51.39879 7.57160 4687 ft 126 kts 133°
2026-05-07 17:49 51.39269 7.58129 4273 ft 124 kts 134°
2026-05-07 17:50 51.38685 7.59072 4022 ft 109 kts 133°
2026-05-07 17:50 51.38185 7.59847 4033 ft 105 kts 133°
2026-05-07 17:50 51.37611 7.60727 4025 ft 121 kts 133°
2026-05-07 17:50 51.36982 7.61706 4027 ft 130 kts 133°
2026-05-07 17:51 51.36246 7.62592 4024 ft 139 kts 159°
2026-05-07 17:51 51.35274 7.62524 4025 ft 146 kts 204°
2026-05-07 17:51 51.34566 7.61400 4024 ft 147 kts 249°
2026-05-07 17:51 51.34435 7.59808 4025 ft 146 kts 272°
2026-05-07 17:52 51.34442 7.58177 4022 ft 147 kts 274°
2026-05-07 17:52 51.34447 7.56539 4021 ft 147 kts 273°
2026-05-07 17:52 51.34461 7.54910 4024 ft 146 kts 273°
2026-05-07 17:52 51.34475 7.53269 4026 ft 148 kts 274°
2026-05-07 17:53 51.34477 7.51612 4025 ft 149 kts 273°
2026-05-07 17:53 51.34483 7.49953 4019 ft 148 kts 273°
2026-05-07 17:53 51.34486 7.48307 4014 ft 148 kts 273°
2026-05-07 17:53 51.34503 7.46667 4010 ft 147 kts 283°
2026-05-07 17:54 51.35040 7.45383 4026 ft 139 kts 327°
2026-05-07 17:54 51.35869 7.44612 3821 ft 140 kts 334°
2026-05-07 17:54 51.36725 7.43863 3508 ft 140 kts 333°
2026-05-07 17:54 51.37573 7.43105 3225 ft 140 kts 333°
2026-05-07 17:55 51.38418 7.42344 3016 ft 134 kts 333°
2026-05-07 17:55 51.39171 7.41655 3010 ft 116 kts 334°
2026-05-07 17:55 51.39826 7.41020 3004 ft 105 kts 332°
2026-05-07 17:55 51.40423 7.40454 3008 ft 95 kts 334°
2026-05-07 17:56 51.41020 7.40293 3004 ft 85 kts 19°
2026-05-07 17:56 51.41553 7.40600 3019 ft 85 kts 22°
2026-05-07 17:56 51.42170 7.40972 3018 ft 107 kts 23°
2026-05-07 17:56 51.42916 7.41441 3016 ft 124 kts 23°
2026-05-07 17:57 51.43753 7.41984 3027 ft 134 kts 24°
2026-05-07 17:57 51.44333 7.42367 3018 ft 138 kts 23°
2026-05-07 17:57 51.45421 7.43551 2894 ft 147 kts 44°
2026-05-07 17:57 51.46019 7.44882 2706 ft 148 kts 57°
2026-05-07 17:58 51.46552 7.46284 2505 ft 147 kts 60°
2026-05-07 17:58 51.47071 7.47700 2302 ft 144 kts 60°
2026-05-07 17:58 51.47544 7.49044 2114 ft 134 kts 61°
2026-05-07 17:58 51.47989 7.50312 1941 ft 128 kts 62°
2026-05-07 17:59 51.48418 7.51532 1770 ft 123 kts 62°
2026-05-07 17:59 51.48835 7.52717 1601 ft 125 kts 61°
2026-05-07 17:59 51.49251 7.53895 1419 ft 114 kts 62°
2026-05-07 17:59 51.49625 7.54956 1267 ft 108 kts 62°
2026-05-07 18:00 51.49991 7.55992 1113 ft 105 kts 62°
2026-05-07 18:00 51.50342 7.56987 971 ft 101 kts 62°
2026-05-07 18:00 51.50686 7.57958 832 ft 100 kts 62°
2026-05-07 18:00 51.51020 7.58917 701 ft 96 kts 62°
2026-05-07 18:01 51.51350 7.59850 589 ft 97 kts 60°
2026-05-07 18:01 51.51674 7.60772 451 ft 93 kts 62°
2026-05-07 18:01 51.51946 7.61547 409 ft 62 kts 60°
2026-05-07 18:01 51.52118 7.62031 408 ft 40 kts 59°
2026-05-07 18:02 51.52097 7.62392 404 ft 9 kts 150°
2026-05-07 18:02 51.52094 7.62395 404 ft 0 kts 150°
2026-05-07 18:04 51.52085 7.62401 404 ft 11 kts 167°
2026-05-07 18:05 51.51985 7.62204 408 ft 40 kts 240°
2026-05-07 18:05 51.51852 7.61824 411 ft 36 kts 238°
2026-05-07 18:05 51.51741 7.61508 418 ft 32 kts 240°
2026-05-07 18:05 51.51622 7.61169 418 ft 33 kts 241°
2026-05-07 18:06 51.51482 7.60973 429 ft 26 kts 238°
2026-05-07 18:06 51.51374 7.60666 432 ft 32 kts 240°
2026-05-07 18:06 51.51266 7.60362 442 ft 29 kts 241°
2026-05-07 18:06 51.51166 7.60168 453 ft 16 kts 155°
2026-05-07 18:07 51.51192 7.60296 452 ft 15 kts 51°
2026-05-07 18:07 51.51198 7.60394 457 ft 0 kts 106°